Skip Navigation
Skip Navigation

Today's Weather Data

Time Wind Dir Wind Spd
mph
Wind Gust
mph
Hum In
%
Humidity
%
Temp In
F
Temp
F
Raw Barom
in
Tot Rain
in
UV Solar
W/sqm
DailyRain
in
HourRain
in
24HrRain
in
RainRate
in/hr
11/30/2012 12:01:01a 188 0 2 44 89 68.9 59.1 30.22 1.07 0.0 0 0.15 0.02 0.15 0.000
11/30/2012 12:02:02a 188 0 1 44 89 68.9 59.1 30.21 1.07 0.0 0 0.00 0.02 0.15 0.000
11/30/2012 12:03:02a 188 0 1 44 89 68.9 59.1 30.21 1.08 0.0 0 0.01 0.02 0.15 0.120
11/30/2012 12:04:02a 188 0 1 44 89 68.9 59.1 30.21 1.08 0.0 0 0.01 0.03 0.16 0.120
11/30/2012 12:05:02a 188 0 1 44 89 68.9 59.1 30.21 1.08 0.0 0 0.01 0.03 0.16 0.120
11/30/2012 12:06:02a 188 0 1 44 89 68.9 59.1 30.21 1.08 0.0 0 0.01 0.03 0.16 0.120
11/30/2012 12:07:02a 188 1 1 44 89 68.9 59.0 30.21 1.08 0.0 0 0.01 0.03 0.16 0.120
11/30/2012 12:08:02a 188 1 1 44 89 68.9 59.1 30.21 1.08 0.0 0 0.01 0.03 0.16 0.110
11/30/2012 12:09:02a 184 2 2 44 89 68.9 59.2 30.21 1.08 0.0 0 0.01 0.03 0.16 0.100
11/30/2012 12:10:02a 142 2 2 44 89 68.9 59.1 30.21 1.08 0.0 0 0.01 0.03 0.16 0.080
11/30/2012 12:11:02a 142 1 2 44 89 68.9 59.1 30.21 1.09 0.0 0 0.01 0.03 0.16 0.070
11/30/2012 12:12:02a 142 1 2 44 89 68.9 59.2 30.21 1.09 0.0 0 0.02 0.03 0.16 0.070
11/30/2012 12:13:02a 142 0 2 44 89 68.9 59.1 30.21 1.09 0.0 0 0.02 0.04 0.17 0.070
11/30/2012 12:14:03a 142 0 2 44 89 68.9 59.1 30.21 1.09 0.0 0 0.02 0.04 0.17 0.070
11/30/2012 12:15:06a 142 0 2 44 89 68.9 59.1 30.21 1.09 0.0 0 0.02 0.04 0.17 0.070
11/30/2012 12:16:06a 142 0 2 44 89 68.9 59.1 30.21 1.09 0.0 0 0.02 0.04 0.17 0.070
11/30/2012 12:17:09a 142 0 0 44 89 68.9 59.1 30.21 1.09 0.0 0 0.02 0.04 0.17 0.070
11/30/2012 12:18:09a 142 0 0 44 89 68.9 59.1 30.21 1.09 0.0 0 0.02 0.03 0.17 0.070
11/30/2012 12:19:09a 142 0 0 44 89 68.9 59.1 30.21 1.09 0.0 0 0.02 0.03 0.17 0.070
11/30/2012 12:20:09a 142 0 0 44 89 68.9 59.1 30.21 1.09 0.0 0 0.02 0.03 0.17 0.070
11/30/2012 12:21:09a 142 0 0 44 89 68.9 59.1 30.21 1.09 0.0 0 0.02 0.03 0.17 0.060
11/30/2012 12:22:09a 142 0 0 44 89 68.9 59.1 30.21 1.09 0.0 0 0.02 0.03 0.17 0.050
11/30/2012 12:23:09a 142 0 0 44 89 68.9 59.0 30.21 1.09 0.0 0 0.02 0.03 0.17 0.050
11/30/2012 12:24:09a 142 0 0 44 89 68.9 59.0 30.21 1.09 0.0 0 0.02 0.03 0.17 0.050
11/30/2012 12:25:09a 142 0 0 44 89 68.9 59.0 30.21 1.09 0.0 0 0.02 0.03 0.17 0.040
11/30/2012 12:26:09a 142 0 0 44 89 68.9 59.0 30.21 1.09 0.0 0 0.02 0.03 0.17 0.040
11/30/2012 12:27:09a 142 0 0 44 89 68.9 59.0 30.21 1.09 0.0 0 0.02 0.03 0.17 0.040
11/30/2012 12:28:09a 142 0 1 44 89 68.9 58.9 30.21 1.09 0.0 0 0.02 0.03 0.17 0.000
11/30/2012 12:29:09a 142 1 1 44 89 68.9 58.9 30.21 1.09 0.0 0 0.02 0.03 0.17 0.000
11/30/2012 12:30:09a 142 1 1 44 89 68.9 58.9 30.21 1.09 0.0 0 0.02 0.03 0.17 0.000
11/30/2012 12:31:10a 142 0 1 44 89 68.9 58.9 30.21 1.09 0.0 0 0.02 0.03 0.17 0.000
11/30/2012 12:32:10a 145 1 2 44 89 68.9 58.9 30.21 1.09 0.0 0 0.02 0.03 0.17 0.000
11/30/2012 12:33:13a 145 1 2 44 89 68.9 58.8 30.21 1.09 0.0 0 0.02 0.03 0.17 0.000
11/30/2012 12:34:13a 145 0 2 44 89 68.9 58.8 30.21 1.09 0.0 0 0.02 0.03 0.17 0.000
11/30/2012 12:35:13a 145 0 2 44 89 68.9 58.8 30.21 1.09 0.0 0 0.02 0.03 0.17 0.000
11/30/2012 12:36:13a 145 0 2 44 89 68.9 58.8 30.21 1.09 0.0 0 0.02 0.03 0.17 0.000
11/30/2012 12:37:13a 145 0 2 44 89 68.9 58.8 30.21 1.09 0.0 0 0.02 0.03 0.17 0.000
11/30/2012 12:38:13a 145 0 2 44 89 68.9 58.8 30.21 1.09 0.0 0 0.02 0.03 0.17 0.000
11/30/2012 12:39:16a 145 0 2 44 89 68.9 58.8 30.21 1.10 0.0 0 0.02 0.03 0.17 0.000
11/30/2012 12:40:16a 145 0 2 44 89 68.9 58.8 30.21 1.10 0.0 0 0.03 0.04 0.18 0.000
11/30/2012 12:41:16a 145 0 2 44 89 69.1 58.8 30.21 1.10 0.0 0 0.03 0.04 0.18 0.000
11/30/2012 12:42:16a 145 0 2 44 89 69.1 58.8 30.21 1.10 0.0 0 0.03 0.04 0.18 0.000
11/30/2012 12:43:16a 145 0 2 44 89 69.1 58.8 30.21 1.10 0.0 0 0.03 0.04 0.18 0.000
11/30/2012 12:44:16a 145 0 2 44 89 69.1 58.8 30.21 1.10 0.0 0 0.03 0.04 0.18 0.000
11/30/2012 12:45:22a 145 0 2 44 89 69.1 58.8 30.21 1.10 0.0 0 0.03 0.04 0.18 0.000
11/30/2012 12:46:23a 145 0 0 44 89 69.1 58.7 30.21 1.10 0.0 0 0.03 0.04 0.18 0.000
11/30/2012 12:47:23a 145 0 0 44 89 69.1 58.7 30.21 1.10 0.0 0 0.03 0.04 0.18 0.000
11/30/2012 12:48:23a 145 0 0 44 89 69.1 58.7 30.21 1.10 0.0 0 0.03 0.04 0.18 0.000
11/30/2012 12:49:29a 145 0 0 44 89 69.1 58.7 30.21 1.10 0.0 0 0.03 0.04 0.18 0.000
11/30/2012 12:50:29a 145 0 0 44 89 69.1 58.7 30.21 1.10 0.0 0 0.03 0.04 0.18 0.000
11/30/2012 12:51:29a 145 0 0 44 89 69.1 58.7 30.21 1.10 0.0 0 0.03 0.04 0.18 0.000
11/30/2012 12:52:29a 145 0 1 44 89 69.1 58.7 30.21 1.10 0.0 0 0.03 0.04 0.18 0.000
11/30/2012 12:53:29a 145 0 1 44 89 69.1 58.8 30.21 1.10 0.0 0 0.03 0.04 0.18 0.000
11/30/2012 12:54:29a 145 0 1 44 89 69.1 58.8 30.21 1.10 0.0 0 0.03 0.04 0.18 0.000
11/30/2012 12:55:29a 145 0 1 44 89 69.1 58.8 30.21 1.10 0.0 0 0.03 0.04 0.18 0.000
11/30/2012 12:56:29a 145 1 1 44 89 69.1 58.8 30.21 1.10 0.0 0 0.03 0.04 0.18 0.000
11/30/2012 12:57:29a 145 0 1 44 89 69.1 58.8 30.21 1.10 0.0 0 0.03 0.04 0.18 0.000
11/30/2012 12:58:29a 145 1 1 44 89 69.1 58.8 30.21 1.10 0.0 0 0.03 0.04 0.18 0.000
11/30/2012 12:59:29a 144 1 2 44 89 69.1 58.8 30.20 1.10 0.0 0 0.03 0.04 0.18 0.000
11/30/2012 1:00:29a 118 1 2 44 89 69.1 58.8 30.20 1.10 0.0 0 0.03 0.04 0.18 0.000
11/30/2012 1:01:30a 118 1 1 44 89 69.1 58.8 30.20 1.10 0.0 0 0.03 0.04 0.18 0.000
11/30/2012 1:02:30a 108 1 2 44 89 69.1 58.8 30.20 1.10 0.0 0 0.03 0.03 0.18 0.000
11/30/2012 1:03:30a 93 2 2 44 89 69.1 58.8 30.20 1.10 0.0 0 0.03 0.03 0.18 0.000
11/30/2012 1:04:33a 94 1 2 44 89 69.1 58.8 30.20 1.10 0.0 0 0.03 0.03 0.18 0.000
11/30/2012 1:05:36a 92 0 2 44 89 69.1 58.8 30.20 1.10 0.0 0 0.03 0.03 0.18 0.000
11/30/2012 1:06:39a 92 0 2 44 89 69.1 58.8 30.20 1.10 0.0 0 0.03 0.03 0.18 0.000
11/30/2012 1:07:39a 92 0 2 44 89 69.1 58.8 30.20 1.10 0.0 0 0.03 0.03 0.18 0.000
11/30/2012 1:08:39a 92 0 2 44 89 69.1 58.8 30.20 1.10 0.0 0 0.03 0.03 0.18 0.000
11/30/2012 1:09:42a 92 0 2 44 89 69.1 58.8 30.20 1.10 0.0 0 0.03 0.03 0.18 0.000
11/30/2012 1:10:42a 92 0 2 44 89 69.1 58.8 30.20 1.10 0.0 0 0.03 0.03 0.18 0.000
11/30/2012 1:11:42a 92 0 2 44 89 69.1 58.8 30.20 1.10 0.0 0 0.03 0.03 0.18 0.000
11/30/2012 1:12:42a 92 0 2 44 90 69.1 58.8 30.20 1.10 0.0 0 0.03 0.03 0.18 0.000
11/30/2012 1:13:42a 92 0 2 44 90 69.1 58.8 30.20 1.10 0.0 0 0.03 0.03 0.18 0.000
11/30/2012 1:14:42a 92 0 2 44 90 69.1 58.7 30.20 1.10 0.0 0 0.03 0.03 0.18 0.000
11/30/2012 1:15:42a 92 0 2 44 90 69.1 58.7 30.20 1.10 0.0 0 0.03 0.03 0.18 0.000
11/30/2012 1:16:43a 92 0 1 44 90 69.1 58.7 30.20 1.10 0.0 0 0.03 0.03 0.18 0.000
11/30/2012 1:17:46a 92 0 1 44 90 69.1 58.7 30.20 1.10 0.0 0 0.03 0.01 0.18 0.000
11/30/2012 1:18:46a 92 0 1 44 90 69.1 58.7 30.20 1.10 0.0 0 0.03 0.01 0.18 0.000
11/30/2012 1:19:46a 92 0 1 44 90 69.1 58.7 30.20 1.10 0.0 0 0.03 0.01 0.18 0.000
11/30/2012 1:20:46a 92 0 1 44 90 69.1 58.7 30.20 1.10 0.0 0 0.03 0.01 0.18 0.000
11/30/2012 1:21:46a 92 0 1 44 90 69.1 58.7 30.20 1.10 0.0 0 0.03 0.01 0.18 0.000
11/30/2012 1:22:46a 92 0 1 44 90 69.1 58.7 30.20 1.10 0.0 0 0.03 0.01 0.18 0.000
11/30/2012 1:23:46a 92 0 1 44 90 69.1 58.6 30.20 1.10 0.0 0 0.03 0.01 0.18 0.000
11/30/2012 1:24:46a 92 0 1 44 90 69.1 58.6 30.19 1.10 0.0 0 0.03 0.01 0.18 0.000
11/30/2012 1:25:46a 92 0 1 44 90 69.1 58.6 30.19 1.10 0.0 0 0.03 0.01 0.18 0.000
11/30/2012 1:26:49a 92 0 1 44 90 69.1 58.6 30.19 1.10 0.0 0 0.03 0.01 0.18 0.000
11/30/2012 1:27:49a 92 0 1 44 90 69.1 58.6 30.19 1.10 0.0 0 0.03 0.01 0.18 0.000
11/30/2012 1:28:52a 92 0 1 44 90 69.1 58.6 30.19 1.10 0.0 0 0.03 0.01 0.18 0.000
11/30/2012 1:29:52a 92 1 1 44 90 69.1 58.6 30.19 1.10 0.0 0 0.03 0.01 0.18 0.000
11/30/2012 1:30:52a 92 0 2 44 90 69.1 58.6 30.20 1.10 0.0 0 0.03 0.01 0.18 0.000
11/30/2012 1:31:52a 92 0 0 44 90 69.1 58.6 30.19 1.10 0.0 0 0.03 0.01 0.18 0.000
11/30/2012 1:32:53a 92 0 1 44 90 69.1 58.6 30.19 1.10 0.0 0 0.03 0.01 0.18 0.000
11/30/2012 1:33:53a 92 0 1 44 90 69.1 58.6 30.19 1.10 0.0 0 0.03 0.01 0.18 0.000
11/30/2012 1:34:53a 92 0 1 44 90 69.1 58.6 30.19 1.10 0.0 0 0.03 0.01 0.18 0.000
11/30/2012 1:35:56a 92 0 1 44 90 69.1 58.6 30.19 1.10 0.0 0 0.03 0.01 0.18 0.000
11/30/2012 1:36:56a 92 0 1 44 90 69.1 58.6 30.19 1.10 0.0 0 0.03 0.01 0.18 0.000
11/30/2012 1:37:56a 92 0 1 44 90 69.1 58.6 30.19 1.10 0.0 0 0.03 0.01 0.18 0.000
11/30/2012 1:38:56a 92 0 1 44 90 69.1 58.6 30.19 1.10 0.0 0 0.03 0.01 0.18 0.000
11/30/2012 1:39:56a 92 0 1 44 90 69.1 58.6 30.19 1.10 0.0 0 0.03 0.01 0.18 0.000
11/30/2012 1:40:59a 92 0 1 44 90 69.1 58.6 30.20 1.10 0.0 0 0.03 0.01 0.18 0.000
11/30/2012 1:41:59a 92 0 1 44 90 69.1 58.6 30.19 1.10 0.0 0 0.03 0.01 0.18 0.000
11/30/2012 1:42:59a 92 0 1 44 90 69.1 58.6 30.20 1.10 0.0 0 0.03 0.01 0.18 0.000
11/30/2012 1:44:00a 92 0 1 44 90 69.1 58.5 30.19 1.10 0.0 0 0.03 0.01 0.18 0.000
11/30/2012 1:45:03a 92 0 1 44 90 69.1 58.5 30.19 1.10 0.0 0 0.03 0.01 0.18 0.000
11/30/2012 1:46:03a 92 0 1 44 90 69.1 58.5 30.19 1.10 0.0 0 0.03 0.01 0.18 0.000
11/30/2012 1:47:06a 92 0 1 44 90 69.1 58.6 30.19 1.10 0.0 0 0.03 0.01 0.18 0.000
11/30/2012 1:48:06a 92 0 1 44 90 69.1 58.5 30.19 1.10 0.0 0 0.03 0.00 0.18 0.000
11/30/2012 1:49:09a 92 0 1 44 90 69.1 58.6 30.19 1.10 0.0 0 0.03 0.00 0.18 0.000
11/30/2012 1:50:09a 92 0 1 44 90 69.1 58.5 30.19 1.10 0.0 0 0.03 0.00 0.18 0.000
11/30/2012 1:51:12a 92 0 1 44 90 69.1 58.5 30.19 1.10 0.0 0 0.03 0.00 0.18 0.000
11/30/2012 1:52:12a 92 0 1 44 90 69.1 58.6 30.19 1.10 0.0 0 0.03 0.00 0.18 0.000
11/30/2012 1:53:12a 92 0 1 44 90 69.1 58.5 30.19 1.10 0.0 0 0.03 0.00 0.18 0.000
11/30/2012 1:54:12a 92 0 1 44 90 69.1 58.6 30.19 1.10 0.0 0 0.03 0.00 0.18 0.000
11/30/2012 1:55:15a 92 0 1 44 90 69.1 58.5 30.19 1.10 0.0 0 0.03 0.00 0.18 0.000
11/30/2012 1:56:15a 92 0 1 44 90 69.1 58.6 30.19 1.10 0.0 0 0.03 0.00 0.18 0.000
11/30/2012 1:57:18a 92 0 1 44 90 69.1 58.6 30.19 1.10 0.0 0 0.03 0.00 0.18 0.000
11/30/2012 1:58:18a 92 0 1 44 90 69.1 58.6 30.19 1.10 0.0 0 0.03 0.00 0.18 0.000
11/30/2012 1:59:24a 92 0 1 44 90 69.1 58.6 30.19 1.10 0.0 0 0.03 0.00 0.18 0.000
11/30/2012 2:00:25a 92 0 1 44 90 69.1 58.6 30.19 1.10 0.0 0 0.03 0.00 0.18 0.000
11/30/2012 2:01:25a 92 0 1 44 90 69.1 58.6 30.19 1.10 0.0 0 0.03 0.00 0.18 0.000
11/30/2012 2:02:25a 92 0 0 44 90 69.1 58.6 30.19 1.10 0.0 0 0.03 0.00 0.18 0.000
11/30/2012 2:03:25a 92 0 0 44 90 69.1 58.6 30.19 1.10 0.0 0 0.03 0.00 0.18 0.000
11/30/2012 2:04:25a 92 0 1 44 90 69.1 58.6 30.19 1.10 0.0 0 0.03 0.00 0.18 0.000
11/30/2012 2:05:25a 92 0 1 44 90 69.3 58.6 30.19 1.10 0.0 0 0.03 0.00 0.18 0.000
11/30/2012 2:06:25a 92 0 1 44 90 69.3 58.6 30.19 1.10 0.0 0 0.03 0.00 0.18 0.000
11/30/2012 2:07:25a 92 0 1 44 90 69.3 58.6 30.19 1.10 0.0 0 0.03 0.00 0.18 0.000
11/30/2012 2:08:25a 92 0 1 44 90 69.3 58.6 30.19 1.10 0.0 0 0.03 0.00 0.18 0.000
11/30/2012 2:09:25a 92 0 1 44 90 69.3 58.6 30.19 1.10 0.0 0 0.03 0.00 0.18 0.000
11/30/2012 2:10:25a 92 0 1 44 90 69.3 58.6 30.19 1.10 0.0 0 0.03 0.00 0.18 0.000
11/30/2012 2:11:25a 92 0 1 44 90 69.3 58.6 30.19 1.10 0.0 0 0.03 0.00 0.18 0.000
11/30/2012 2:12:25a 92 0 1 44 90 69.3 58.6 30.19 1.10 0.0 0 0.03 0.00 0.18 0.000
11/30/2012 2:13:25a 92 0 1 44 90 69.3 58.6 30.19 1.10 0.0 0 0.03 0.00 0.18 0.000
11/30/2012 2:14:25a 92 0 1 44 90 69.3 58.6 30.19 1.10 0.0 0 0.03 0.00 0.18 0.000
11/30/2012 2:15:26a 92 0 1 44 90 69.3 58.6 30.19 1.10 0.0 0 0.03 0.00 0.18 0.000
11/30/2012 2:16:29a 92 0 0 44 90 69.3 58.6 30.19 1.10 0.0 0 0.03 0.00 0.18 0.000
11/30/2012 2:17:29a 92 0 0 44 90 69.3 58.6 30.19 1.10 0.0 0 0.03 0.00 0.18 0.000
11/30/2012 2:18:29a 92 0 0 44 90 69.3 58.6 30.19 1.10 0.0 0 0.03 0.00 0.18 0.000
11/30/2012 2:19:29a 92 0 0 44 90 69.3 58.5 30.19 1.10 0.0 0 0.03 0.00 0.18 0.000
11/30/2012 2:20:29a 92 0 0 44 90 69.3 58.5 30.19 1.10 0.0 0 0.03 0.00 0.18 0.000
11/30/2012 2:21:29a 92 0 0 44 90 69.3 58.5 30.19 1.10 0.0 0 0.03 0.00 0.18 0.000
11/30/2012 2:22:29a 92 0 0 44 90 69.3 58.5 30.19 1.10 0.0 0 0.03 0.00 0.18 0.000
11/30/2012 2:23:29a 92 0 0 44 90 69.3 58.5 30.19 1.10 0.0 0 0.03 0.00 0.18 0.000
11/30/2012 2:24:29a 92 0 0 44 90 69.3 58.5 30.19 1.10 0.0 0 0.03 0.00 0.18 0.000
11/30/2012 2:25:29a 92 0 0 44 90 69.3 58.5 30.19 1.10 0.0 0 0.03 0.00 0.18 0.000
11/30/2012 2:26:29a 92 0 0 44 90 69.3 58.5 30.19 1.10 0.0 0 0.03 0.00 0.18 0.000
11/30/2012 2:27:29a 92 0 0 44 90 69.3 58.5 30.19 1.10 0.0 0 0.03 0.00 0.18 0.000
11/30/2012 2:28:29a 92 0 0 44 90 69.3 58.5 30.19 1.10 0.0 0 0.03 0.00 0.18 0.000
11/30/2012 2:29:29a 92 0 0 44 90 69.3 58.5 30.19 1.10 0.0 0 0.03 0.00 0.18 0.000
11/30/2012 2:30:33a 92 0 1 44 90 69.3 58.5 30.19 1.10 0.0 0 0.03 0.00 0.18 0.000
11/30/2012 2:31:33a 92 0 0 44 90 69.3 58.5 30.19 1.10 0.0 0 0.03 0.00 0.18 0.000
11/30/2012 2:32:33a 92 0 1 44 90 69.3 58.5 30.19 1.10 0.0 0 0.03 0.00 0.18 0.000
11/30/2012 2:33:33a 92 0 1 44 90 69.3 58.5 30.19 1.10 0.0 0 0.03 0.00 0.18 0.000
11/30/2012 2:34:33a 92 0 1 44 90 69.3 58.5 30.19 1.10 0.0 0 0.03 0.00 0.18 0.000
11/30/2012 2:35:33a 92 0 1 44 90 69.3 58.5 30.19 1.10 0.0 0 0.03 0.00 0.18 0.000
11/30/2012 2:36:36a 92 0 1 44 90 69.3 58.5 30.19 1.10 0.0 0 0.03 0.00 0.18 0.000
11/30/2012 2:37:36a 92 0 1 44 90 69.3 58.5 30.19 1.10 0.0 0 0.03 0.00 0.18 0.000
11/30/2012 2:38:36a 92 0 1 44 90 69.3 58.5 30.19 1.10 0.0 0 0.03 0.00 0.18 0.000
11/30/2012 2:39:39a 92 0 1 44 90 69.3 58.5 30.19 1.10 0.0 0 0.03 0.00 0.18 0.000
11/30/2012 2:40:39a 92 0 1 44 90 69.3 58.5 30.19 1.10 0.0 0 0.03 0.00 0.18 0.000
11/30/2012 2:41:39a 92 0 1 44 90 69.3 58.5 30.19 1.10 0.0 0 0.03 0.00 0.18 0.000
11/30/2012 2:42:39a 92 0 1 44 90 69.3 58.5 30.19 1.11 0.0 0 0.04 0.01 0.19 0.000
11/30/2012 2:43:39a 92 0 1 44 90 69.3 58.5 30.19 1.11 0.0 0 0.04 0.01 0.19 0.000
11/30/2012 2:44:40a 92 0 1 44 90 69.3 58.5 30.19 1.11 0.0 0 0.04 0.01 0.19 0.000
11/30/2012 2:45:40a 92 0 1 44 90 69.3 58.5 30.19 1.11 0.0 0 0.04 0.01 0.19 0.000
11/30/2012 2:46:43a 92 0 1 44 90 69.3 58.5 30.19 1.11 0.0 0 0.04 0.01 0.19 0.000
11/30/2012 2:47:43a 92 0 1 44 90 69.3 58.6 30.19 1.11 0.0 0 0.04 0.01 0.19 0.000
11/30/2012 2:48:43a 92 0 1 44 90 69.3 58.6 30.19 1.11 0.0 0 0.04 0.01 0.19 0.000
11/30/2012 2:49:43a 92 0 1 44 90 69.3 58.6 30.19 1.11 0.0 0 0.04 0.01 0.19 0.000
11/30/2012 2:50:46a 92 0 1 44 90 69.3 58.6 30.19 1.11 0.0 0 0.04 0.01 0.19 0.000
11/30/2012 2:51:46a 92 0 1 44 90 69.3 58.6 30.19 1.11 0.0 0 0.04 0.01 0.19 0.000
11/30/2012 2:52:46a 92 0 1 44 90 69.3 58.6 30.19 1.11 0.0 0 0.04 0.01 0.19 0.000
11/30/2012 2:53:46a 92 0 1 44 90 69.3 58.6 30.19 1.11 0.0 0 0.04 0.01 0.19 0.000
11/30/2012 2:54:46a 92 0 1 44 90 69.3 58.6 30.19 1.11 0.0 0 0.04 0.01 0.19 0.000
11/30/2012 2:55:46a 92 0 1 44 90 69.3 58.6 30.18 1.11 0.0 0 0.04 0.01 0.19 0.000
11/30/2012 2:56:46a 92 0 1 44 90 69.3 58.6 30.18 1.12 0.0 0 0.04 0.01 0.19 0.040
11/30/2012 2:57:46a 92 0 1 44 90 69.3 58.6 30.18 1.12 0.0 0 0.04 0.01 0.19 0.040
11/30/2012 2:58:46a 92 0 1 44 90 69.3 58.6 30.18 1.12 0.0 0 0.04 0.01 0.19 0.040
11/30/2012 2:59:47a 92 0 1 44 90 69.3 58.6 30.18 1.12 0.0 0 0.05 0.02 0.20 0.040
11/30/2012 3:00:47a 92 0 1 44 90 69.3 58.6 30.18 1.12 0.0 0 0.05 0.02 0.20 0.040
11/30/2012 3:01:47a 92 0 0 44 90 69.3 58.5 30.18 1.12 0.0 0 0.05 0.02 0.20 0.040
11/30/2012 3:02:47a 92 0 1 44 90 69.3 58.5 30.18 1.12 0.0 0 0.05 0.02 0.20 0.040
11/30/2012 3:03:47a 92 0 1 44 90 69.3 58.5 30.18 1.12 0.0 0 0.05 0.02 0.20 0.040
11/30/2012 3:04:47a 92 1 1 44 90 69.3 58.5 30.19 1.12 0.0 0 0.05 0.02 0.20 0.040
11/30/2012 3:05:47a 103 1 2 44 90 69.3 58.5 30.19 1.12 0.0 0 0.05 0.02 0.20 0.040
11/30/2012 3:06:47a 107 0 2 44 90 69.3 58.5 30.19 1.12 0.0 0 0.05 0.02 0.20 0.040
11/30/2012 3:07:47a 107 1 2 44 90 69.3 58.5 30.19 1.12 0.0 0 0.05 0.02 0.20 0.040
11/30/2012 3:08:47a 107 1 2 44 90 69.3 58.5 30.19 1.12 0.0 0 0.05 0.02 0.20 0.040
11/30/2012 3:09:47a 107 0 2 44 90 69.3 58.5 30.19 1.12 0.0 0 0.05 0.02 0.20 0.040
11/30/2012 3:10:47a 107 0 2 44 90 69.3 58.5 30.19 1.12 0.0 0 0.05 0.02 0.20 0.040
11/30/2012 3:11:47a 107 0 2 44 90 69.3 58.5 30.19 1.12 0.0 0 0.05 0.02 0.20 0.040
11/30/2012 3:12:51a 150 1 3 44 90 69.3 58.5 30.19 1.13 0.0 0 0.05 0.02 0.20 0.040
11/30/2012 3:13:51a 150 0 3 44 90 69.3 58.5 30.19 1.13 0.0 0 0.06 0.03 0.21 0.040
11/30/2012 3:14:54a 150 2 3 44 90 69.3 58.5 30.19 1.13 0.0 0 0.06 0.03 0.21 0.040
11/30/2012 3:15:57a 150 2 3 44 90 69.3 58.5 30.19 1.13 0.0 0 0.06 0.03 0.21 0.040
11/30/2012 3:16:57a 150 1 2 44 90 69.3 58.5 30.19 1.13 0.0 0 0.06 0.03 0.21 0.040
11/30/2012 3:17:57a 150 1 2 44 90 69.3 58.5 30.19 1.14 0.0 0 0.06 0.03 0.21 0.040
11/30/2012 3:18:57a 149 1 2 44 90 69.3 58.5 30.19 1.14 0.0 0 0.07 0.04 0.22 0.110
11/30/2012 3:19:57a 152 2 2 44 90 69.3 58.5 30.19 1.14 0.0 0 0.07 0.04 0.22 0.110
11/30/2012 3:21:00a 152 2 3 44 90 69.3 58.5 30.19 1.14 0.0 0 0.07 0.04 0.22 0.110
11/30/2012 3:22:00a 152 1 3 44 90 69.3 58.5 30.19 1.14 0.0 0 0.07 0.04 0.22 0.110
11/30/2012 3:23:00a 152 1 3 44 90 69.3 58.5 30.19 1.14 0.0 0 0.07 0.04 0.22 0.110
11/30/2012 3:24:00a 152 0 3 44 90 69.3 58.5 30.19 1.14 0.0 0 0.07 0.04 0.22 0.100
11/30/2012 3:25:00a 152 1 3 44 90 69.3 58.5 30.19 1.14 0.0 0 0.07 0.04 0.22 0.090
11/30/2012 3:26:00a 152 1 3 44 90 69.3 58.5 30.19 1.14 0.0 0 0.07 0.04 0.22 0.080
11/30/2012 3:27:01a 152 0 3 44 90 69.3 58.5 30.19 1.15 0.0 0 0.07 0.04 0.22 0.070
11/30/2012 3:28:01a 152 0 3 44 90 69.3 58.5 30.19 1.15 0.0 0 0.08 0.05 0.23 0.070
11/30/2012 3:29:04a 152 0 3 44 90 69.3 58.5 30.19 1.15 0.0 0 0.08 0.05 0.23 0.070
11/30/2012 3:30:04a 152 0 3 44 90 69.3 58.5 30.19 1.15 0.0 0 0.08 0.05 0.23 0.070
11/30/2012 3:31:04a 152 0 3 44 90 69.3 58.5 30.19 1.15 0.0 0 0.08 0.05 0.23 0.070
11/30/2012 3:32:04a 152 0 0 44 90 69.3 58.5 30.19 1.15 0.0 0 0.08 0.05 0.23 0.070
11/30/2012 3:33:07a 152 0 1 44 90 69.3 58.5 30.19 1.16 0.0 0 0.08 0.05 0.23 0.070
11/30/2012 3:34:07a 152 0 1 44 90 69.3 58.5 30.19 1.16 0.0 0 0.09 0.06 0.24 0.110
11/30/2012 3:35:07a 152 0 1 44 90 69.3 58.5 30.19 1.16 0.0 0 0.09 0.06 0.24 0.110
11/30/2012 3:36:07a 152 1 2 44 90 69.3 58.5 30.19 1.16 0.0 0 0.09 0.06 0.24 0.110
11/30/2012 3:37:07a 152 0 2 44 90 69.3 58.5 30.19 1.16 0.0 0 0.09 0.06 0.24 0.110
11/30/2012 3:38:07a 152 0 2 44 90 69.3 58.5 30.19 1.16 0.0 0 0.09 0.06 0.24 0.110
11/30/2012 3:39:07a 156 2 3 44 90 69.3 58.5 30.18 1.16 0.0 0 0.09 0.06 0.24 0.110
11/30/2012 3:40:07a 156 0 3 44 90 69.3 58.5 30.18 1.16 0.0 0 0.09 0.06 0.24 0.110
11/30/2012 3:41:07a 156 0 3 44 90 69.3 58.4 30.18 1.16 0.0 0 0.09 0.06 0.24 0.110
11/30/2012 3:42:07a 156 0 3 44 90 69.3 58.4 30.18 1.16 0.0 0 0.09 0.06 0.24 0.110
11/30/2012 3:43:07a 156 2 3 44 90 69.3 58.4 30.18 1.16 0.0 0 0.09 0.06 0.24 0.060
11/30/2012 3:44:08a 156 2 3 44 90 69.3 58.4 30.18 1.16 0.0 0 0.09 0.06 0.24 0.060
11/30/2012 3:45:08a 156 0 3 44 90 69.3 58.4 30.18 1.16 0.0 0 0.09 0.06 0.24 0.050
11/30/2012 3:46:08a 156 0 3 44 90 69.3 58.4 30.18 1.16 0.0 0 0.09 0.06 0.24 0.040
11/30/2012 3:47:11a 156 0 0 44 90 69.3 58.4 30.18 1.16 0.0 0 0.09 0.06 0.23 0.040
11/30/2012 3:48:11a 156 0 0 44 90 69.3 58.4 30.18 1.17 0.0 0 0.09 0.05 0.23 0.040
11/30/2012 3:49:11a 156 0 0 44 90 69.3 58.4 30.18 1.17 0.0 0 0.10 0.06 0.24 0.040
11/30/2012 3:50:11a 156 0 2 44 90 69.3 58.4 30.18 1.17 0.0 0 0.10 0.06 0.24 0.040
11/30/2012 3:51:11a 156 2 3 44 90 69.3 58.4 30.18 1.17 0.0 0 0.10 0.06 0.24 0.040
11/30/2012 3:52:11a 156 3 3 44 90 69.3 58.4 30.18 1.17 0.0 0 0.10 0.06 0.24 0.040
11/30/2012 3:53:11a 156 1 3 44 90 69.3 58.3 30.18 1.17 0.0 0 0.10 0.06 0.24 0.040
11/30/2012 3:54:11a 156 0 3 44 90 69.3 58.3 30.18 1.17 0.0 0 0.10 0.06 0.24 0.040
11/30/2012 3:55:11a 156 1 3 44 90 69.3 58.4 30.18 1.17 0.0 0 0.10 0.06 0.24 0.040
11/30/2012 3:56:11a 156 0 3 44 90 69.3 58.4 30.18 1.17 0.0 0 0.10 0.06 0.24 0.040
11/30/2012 3:57:11a 156 2 3 44 90 69.3 58.3 30.18 1.17 0.0 0 0.10 0.06 0.24 0.040
11/30/2012 3:58:14a 156 3 3 44 90 69.3 58.3 30.18 1.17 0.0 0 0.10 0.06 0.24 0.040
11/30/2012 3:59:14a 156 1 3 44 90 69.3 58.3 30.18 1.17 0.0 0 0.10 0.06 0.24 0.040
11/30/2012 4:00:15a 156 1 3 44 90 69.3 58.3 30.18 1.17 0.0 0 0.10 0.06 0.24 0.040
11/30/2012 4:01:15a 156 3 3 44 90 69.3 58.3 30.18 1.17 0.0 0 0.10 0.06 0.24 0.040
11/30/2012 4:02:18a 157 1 3 44 90 69.3 58.3 30.19 1.17 0.0 0 0.10 0.06 0.24 0.040
11/30/2012 4:03:24a 157 2 3 44 90 69.3 58.3 30.18 1.17 0.0 0 0.10 0.05 0.24 0.040
11/30/2012 4:04:24a 157 1 3 44 90 69.3 58.3 30.18 1.17 0.0 0 0.10 0.05 0.24 0.040
11/30/2012 4:05:24a 157 1 3 44 90 69.3 58.3 30.18 1.17 0.0 0 0.10 0.05 0.24 0.000
11/30/2012 4:06:30a 157 0 3 44 90 69.3 58.3 30.18 1.17 0.0 0 0.10 0.05 0.24 0.000
11/30/2012 4:07:30a 157 2 3 44 90 69.3 58.3 30.18 1.17 0.0 0 0.10 0.05 0.24 0.000
11/30/2012 4:08:33a 157 0 3 44 90 69.3 58.3 30.18 1.17 0.0 0 0.10 0.05 0.24 0.000
11/30/2012 4:09:33a 157 0 3 44 90 69.3 58.3 30.18 1.17 0.0 0 0.10 0.05 0.24 0.000
11/30/2012 4:10:33a 157 1 3 44 90 69.3 58.3 30.18 1.17 0.0 0 0.10 0.05 0.24 0.000
11/30/2012 4:11:33a 157 2 3 44 90 69.3 58.3 30.18 1.17 0.0 0 0.10 0.05 0.24 0.000
11/30/2012 4:12:33a 157 2 3 44 90 69.3 58.3 30.18 1.17 0.0 0 0.10 0.05 0.24 0.000
11/30/2012 4:13:34a 161 2 4 44 90 69.3 58.3 30.18 1.17 0.0 0 0.10 0.05 0.24 0.000
11/30/2012 4:14:34a 161 0 4 44 91 69.3 58.3 30.18 1.17 0.0 0 0.10 0.05 0.24 0.000
11/30/2012 4:15:34a 161 2 4 44 91 69.3 58.3 30.18 1.17 0.0 0 0.10 0.05 0.24 0.000
11/30/2012 4:16:34a 161 0 2 44 91 69.3 58.3 30.18 1.18 0.0 0 0.11 0.06 0.24 0.000
11/30/2012 4:17:34a 160 0 2 44 91 69.4 58.3 30.18 1.18 0.0 0 0.11 0.05 0.24 0.000
11/30/2012 4:18:34a 160 0 2 44 91 69.4 58.3 30.18 1.18 0.0 0 0.11 0.05 0.24 0.000
11/30/2012 4:19:34a 160 0 2 44 91 69.4 58.3 30.18 1.18 0.0 0 0.11 0.05 0.24 0.000
11/30/2012 4:20:34a 161 1 2 44 91 69.4 58.3 30.18 1.18 0.0 0 0.11 0.05 0.24 0.000
11/30/2012 4:21:34a 161 0 2 44 91 69.4 58.3 30.18 1.18 0.0 0 0.11 0.05 0.24 0.000
11/30/2012 4:22:34a 161 0 2 44 91 69.4 58.4 30.18 1.18 0.0 0 0.11 0.05 0.24 0.000
11/30/2012 4:23:34a 161 0 2 44 91 69.4 58.3 30.18 1.18 0.0 0 0.11 0.05 0.24 0.000
11/30/2012 4:24:37a 161 0 2 44 91 69.4 58.3 30.18 1.18 0.0 0 0.11 0.05 0.24 0.000
11/30/2012 4:25:37a 161 0 2 44 91 69.4 58.4 30.18 1.18 0.0 0 0.11 0.05 0.24 0.000
11/30/2012 4:26:37a 161 0 2 44 91 69.4 58.4 30.18 1.18 0.0 0 0.11 0.05 0.24 0.000
11/30/2012 4:27:40a 161 0 2 44 91 69.4 58.4 30.18 1.18 0.0 0 0.11 0.05 0.24 0.000
11/30/2012 4:28:40a 160 1 2 44 91 69.4 58.3 30.18 1.18 0.0 0 0.11 0.05 0.24 0.000
11/30/2012 4:29:40a 160 0 2 44 91 69.4 58.3 30.18 1.18 0.0 0 0.11 0.05 0.24 0.000
11/30/2012 4:30:40a 160 1 3 44 91 69.4 58.4 30.18 1.18 0.0 0 0.11 0.05 0.24 0.000
11/30/2012 4:31:43a 161 1 1 44 91 69.4 58.4 30.18 1.18 0.0 0 0.11 0.03 0.24 0.000
11/30/2012 4:32:43a 160 0 1 44 91 69.4 58.4 30.18 1.18 0.0 0 0.11 0.03 0.24 0.000
11/30/2012 4:33:44a 161 0 1 44 91 69.4 58.4 30.18 1.18 0.0 0 0.11 0.03 0.24 0.000
11/30/2012 4:34:44a 161 0 1 44 91 69.4 58.4 30.18 1.18 0.0 0 0.11 0.03 0.24 0.000
11/30/2012 4:35:44a 161 0 2 44 91 69.4 58.4 30.18 1.18 0.0 0 0.11 0.03 0.24 0.000
11/30/2012 4:36:44a 161 0 2 44 91 69.4 58.4 30.18 1.18 0.0 0 0.11 0.03 0.24 0.000
11/30/2012 4:37:47a 161 0 2 44 91 69.4 58.4 30.18 1.18 0.0 0 0.11 0.03 0.24 0.000
11/30/2012 4:38:47a 161 0 2 44 91 69.4 58.4 30.18 1.18 0.0 0 0.11 0.03 0.24 0.000
11/30/2012 4:39:47a 161 1 2 44 91 69.4 58.4 30.18 1.18 0.0 0 0.11 0.03 0.24 0.000
11/30/2012 4:40:47a 161 2 2 44 91 69.4 58.3 30.18 1.18 0.0 0 0.11 0.03 0.24 0.000
11/30/2012 4:41:47a 161 0 2 44 91 69.4 58.3 30.18 1.18 0.0 0 0.11 0.03 0.24 0.000
11/30/2012 4:42:47a 160 0 2 44 91 69.4 58.3 30.18 1.18 0.0 0 0.11 0.03 0.24 0.000
11/30/2012 4:43:47a 160 0 2 44 91 69.4 58.3 30.18 1.18 0.0 0 0.11 0.03 0.24 0.000
11/30/2012 4:44:47a 161 1 2 44 91 69.4 58.3 30.18 1.19 0.0 0 0.11 0.03 0.24 0.000
11/30/2012 4:45:47a 161 1 2 44 91 69.4 58.3 30.18 1.19 0.0 0 0.12 0.04 0.25 0.000
11/30/2012 4:46:47a 161 1 2 44 91 69.4 58.3 30.18 1.19 0.0 0 0.12 0.04 0.25 0.000
11/30/2012 4:47:47a 161 1 3 44 91 69.4 58.3 30.18 1.19 0.0 0 0.12 0.04 0.24 0.000
11/30/2012 4:48:47a 160 0 3 44 91 69.4 58.4 30.18 1.19 0.0 0 0.12 0.03 0.24 0.000
11/30/2012 4:49:51a 160 0 3 44 91 69.4 58.4 30.18 1.20 0.0 0 0.12 0.03 0.24 0.000
11/30/2012 4:50:51a 160 0 3 44 91 69.4 58.3 30.18 1.20 0.0 0 0.13 0.03 0.24 0.110
11/30/2012 4:51:51a 161 1 3 44 91 69.4 58.3 30.18 1.20 0.0 0 0.13 0.04 0.25 0.110
11/30/2012 4:52:51a 161 2 3 44 91 69.4 58.3 30.18 1.20 0.0 0 0.13 0.04 0.25 0.110
11/30/2012 4:53:51a 161 0 3 44 91 69.4 58.3 30.18 1.20 0.0 0 0.13 0.04 0.25 0.110
11/30/2012 4:54:51a 161 2 3 44 91 69.4 58.3 30.18 1.20 0.0 0 0.13 0.04 0.25 0.110
11/30/2012 4:55:51a 161 0 3 44 91 69.4 58.3 30.18 1.20 0.0 0 0.13 0.04 0.25 0.100
11/30/2012 4:56:54a 161 0 3 44 91 69.4 58.3 30.18 1.20 0.0 0 0.13 0.04 0.25 0.090
11/30/2012 4:57:54a 161 0 3 44 91 69.4 58.3 30.18 1.20 0.0 0 0.13 0.04 0.25 0.080
11/30/2012 4:58:54a 160 0 3 44 91 69.4 58.3 30.18 1.20 0.0 0 0.13 0.04 0.25 0.070
11/30/2012 4:59:57a 161 0 3 44 91 69.4 58.3 30.18 1.20 0.0 0 0.13 0.04 0.25 0.060
11/30/2012 5:00:57a 162 1 3 44 91 69.4 58.3 30.18 1.20 0.0 0 0.13 0.04 0.25 0.060
11/30/2012 5:02:00a 161 3 4 44 91 69.4 58.3 30.18 1.20 0.0 0 0.13 0.04 0.25 0.050
11/30/2012 5:03:00a 161 1 4 44 91 69.4 58.3 30.18 1.20 0.0 0 0.13 0.03 0.22 0.050
11/30/2012 5:04:03a 162 1 4 44 91 69.4 58.3 30.18 1.20 0.0 0 0.13 0.03 0.22 0.040
11/30/2012 5:05:03a 161 2 4 44 91 69.4 58.3 30.18 1.20 0.0 0 0.13 0.03 0.22 0.040
11/30/2012 5:06:04a 161 0 4 44 91 69.4 58.3 30.18 1.20 0.0 0 0.13 0.03 0.22 0.040
11/30/2012 5:07:04a 161 0 4 44 91 69.4 58.3 30.18 1.21 0.0 0 0.13 0.03 0.22 0.040
11/30/2012 5:08:04a 162 0 4 44 91 69.4 58.3 30.18 1.21 0.0 0 0.14 0.04 0.23 0.040
11/30/2012 5:09:04a 162 0 4 44 91 69.4 58.3 30.18 1.21 0.0 0 0.14 0.04 0.23 0.040
11/30/2012 5:10:04a 159 0 4 44 91 69.4 58.3 30.18 1.21 0.0 0 0.14 0.04 0.23 0.040
11/30/2012 5:11:04a 159 0 4 44 91 69.4 58.3 30.18 1.21 0.0 0 0.14 0.04 0.23 0.040
11/30/2012 5:12:04a 159 0 4 44 91 69.4 58.3 30.18 1.21 0.0 0 0.14 0.04 0.23 0.040
11/30/2012 5:13:04a 159 2 4 44 91 69.4 58.3 30.18 1.21 0.0 0 0.14 0.04 0.23 0.040
11/30/2012 5:14:07a 159 0 4 44 91 69.4 58.3 30.18 1.22 0.0 0 0.14 0.04 0.23 0.090
11/30/2012 5:15:11a 159 0 4 44 91 69.4 58.3 30.18 1.22 0.0 0 0.15 0.05 0.24 0.090
11/30/2012 5:16:11a 159 0 4 44 91 69.4 58.3 30.18 1.22 0.0 0 0.15 0.05 0.24 0.090
11/30/2012 5:17:11a 159 1 2 44 91 69.4 58.4 30.18 1.22 0.0 0 0.15 0.05 0.24 0.090
11/30/2012 5:18:14a 160 2 2 44 91 69.4 58.4 30.19 1.22 0.0 0 0.15 0.04 0.24 0.090
11/30/2012 5:19:14a 159 2 2 44 91 69.4 58.3 30.18 1.22 0.0 0 0.15 0.04 0.24 0.090
11/30/2012 5:20:14a 179 0 4 44 91 69.4 58.3 30.18 1.22 0.0 0 0.15 0.04 0.24 0.090
11/30/2012 5:21:17a 180 0 4 44 91 69.4 58.3 30.18 1.22 0.0 0 0.15 0.04 0.24 0.080
11/30/2012 5:22:17a 180 0 4 44 91 69.4 58.3 30.18 1.22 0.0 0 0.15 0.04 0.24 0.070
11/30/2012 5:23:17a 180 1 4 44 91 69.4 58.3 30.18 1.22 0.0 0 0.15 0.04 0.24 0.070
11/30/2012 5:24:17a 180 0 4 44 91 69.4 58.3 30.18 1.23 0.0 0 0.15 0.04 0.24 0.060
11/30/2012 5:25:18a 99 2 4 44 91 69.4 58.3 30.18 1.23 0.0 0 0.16 0.04 0.24 0.060
11/30/2012 5:26:18a 96 0 4 44 91 69.4 58.3 30.18 1.23 0.0 0 0.16 0.05 0.25 0.060
11/30/2012 5:27:18a 96 0 4 44 91 69.4 58.3 30.18 1.23 0.0 0 0.16 0.05 0.25 0.060
11/30/2012 5:28:18a 86 3 4 44 91 69.4 58.3 30.18 1.23 0.0 0 0.16 0.05 0.25 0.060
11/30/2012 5:29:18a 90 1 4 44 91 69.4 58.3 30.18 1.23 0.0 0 0.16 0.05 0.25 0.060
11/30/2012 5:30:24a 89 2 4 44 91 69.4 58.3 30.18 1.23 0.0 0 0.16 0.05 0.25 0.060
11/30/2012 5:31:24a 87 0 0 44 91 69.4 58.3 30.18 1.24 0.0 0 0.17 0.06 0.24 0.080
11/30/2012 5:32:24a 88 0 1 44 91 69.4 58.3 30.18 1.24 0.0 0 0.17 0.06 0.24 0.080
11/30/2012 5:33:24a 88 1 1 44 91 69.4 58.3 30.18 1.24 0.0 0 0.17 0.06 0.24 0.080
11/30/2012 5:34:24a 88 0 1 44 91 69.4 58.3 30.18 1.24 0.0 0 0.17 0.06 0.24 0.080
11/30/2012 5:35:24a 128 0 3 44 91 69.4 58.2 30.18 1.24 0.0 0 0.17 0.06 0.24 0.080
11/30/2012 5:36:30a 128 0 3 44 91 69.4 58.2 30.18 1.24 0.0 0 0.17 0.06 0.24 0.080
11/30/2012 5:37:30a 123 0 3 44 91 69.4 58.2 30.18 1.24 0.0 0 0.17 0.06 0.24 0.080
11/30/2012 5:38:30a 123 1 3 44 91 69.4 58.2 30.18 1.24 0.0 0 0.17 0.06 0.24 0.080
11/30/2012 5:39:30a 128 0 3 44 91 69.4 58.2 30.18 1.24 0.0 0 0.17 0.06 0.24 0.070
11/30/2012 5:40:30a 128 0 3 44 91 69.4 58.2 30.18 1.24 0.0 0 0.17 0.06 0.24 0.060
11/30/2012 5:41:33a 128 0 3 44 91 69.4 58.2 30.18 1.24 0.0 0 0.17 0.06 0.24 0.060
11/30/2012 5:42:33a 128 0 3 44 91 69.4 58.2 30.18 1.24 0.0 0 0.17 0.06 0.24 0.050
11/30/2012 5:43:34a 128 0 3 44 91 69.4 58.1 30.18 1.24 0.0 0 0.17 0.06 0.24 0.050
11/30/2012 5:44:34a 118 2 3 44 91 69.4 58.1 30.18 1.24 0.0 0 0.17 0.06 0.24 0.040
11/30/2012 5:45:34a 101 0 3 44 91 69.4 58.1 30.18 1.24 0.0 0 0.17 0.06 0.24 0.040
11/30/2012 5:46:34a 101 0 0 44 91 69.4 58.1 30.18 1.24 0.0 0 0.17 0.06 0.24 0.040
11/30/2012 5:47:34a 100 0 0 44 91 69.4 58.1 30.18 1.25 0.0 0 0.18 0.06 0.25 0.040
11/30/2012 5:48:34a 101 0 0 44 91 69.4 58.1 30.18 1.25 0.0 0 0.18 0.06 0.25 0.040
11/30/2012 5:49:34a 100 0 0 44 91 69.4 58.1 30.18 1.25 0.0 0 0.18 0.06 0.25 0.040
11/30/2012 5:50:34a 102 2 2 44 91 69.4 58.1 30.18 1.25 0.0 0 0.18 0.06 0.25 0.040
11/30/2012 5:51:34a 174 4 4 44 91 69.4 58.1 30.18 1.25 0.0 0 0.18 0.06 0.25 0.040
11/30/2012 5:52:34a 149 1 5 44 91 69.4 58.1 30.18 1.25 0.0 0 0.18 0.06 0.25 0.040
11/30/2012 5:53:34a 148 0 5 44 91 69.4 58.1 30.18 1.25 0.0 0 0.18 0.06 0.25 0.040
11/30/2012 5:54:34a 148 0 5 44 91 69.4 58.1 30.18 1.25 0.0 0 0.18 0.06 0.25 0.040
11/30/2012 5:55:34a 148 0 5 44 91 69.4 58.1 30.18 1.25 0.0 0 0.18 0.06 0.25 0.040
11/30/2012 5:56:34a 149 0 5 44 91 69.4 58.1 30.18 1.25 0.0 0 0.18 0.06 0.25 0.040
11/30/2012 5:57:34a 149 0 5 44 91 69.4 58.1 30.18 1.25 0.0 0 0.18 0.06 0.25 0.040
11/30/2012 5:58:37a 90 1 5 44 91 69.4 58.1 30.19 1.25 0.0 0 0.18 0.06 0.25 0.040
11/30/2012 5:59:37a 104 0 5 44 91 69.4 58.1 30.18 1.25 0.0 0 0.18 0.06 0.25 0.040
11/30/2012 6:00:37a 107 1 5 44 91 69.4 58.1 30.19 1.25 0.0 0 0.18 0.06 0.25 0.040
11/30/2012 6:01:37a 107 0 0 44 91 69.4 58.1 30.19 1.25 0.0 0 0.18 0.06 0.25 0.040
11/30/2012 6:02:38a 107 0 0 44 91 69.4 58.1 30.19 1.25 0.0 0 0.18 0.05 0.25 0.040
11/30/2012 6:03:38a 107 0 0 44 91 69.4 58.1 30.19 1.25 0.0 0 0.18 0.05 0.25 0.040
11/30/2012 6:04:41a 107 0 0 44 91 69.4 58.1 30.19 1.26 0.0 0 0.19 0.06 0.26 0.000
11/30/2012 6:05:41a 107 0 1 44 91 69.4 58.1 30.19 1.26 0.0 0 0.19 0.06 0.26 0.000
11/30/2012 6:06:41a 107 0 1 44 91 69.4 58.1 30.19 1.26 0.0 0 0.19 0.06 0.26 0.000
11/30/2012 6:07:41a 107 0 1 44 91 69.4 58.1 30.19 1.26 0.0 0 0.19 0.06 0.26 0.000
11/30/2012 6:08:41a 109 0 1 44 91 69.4 58.1 30.19 1.26 0.0 0 0.19 0.06 0.26 0.000
11/30/2012 6:09:41a 109 0 1 44 91 69.4 58.1 30.18 1.26 0.0 0 0.19 0.06 0.26 0.000
11/30/2012 6:10:41a 108 1 1 44 91 69.4 58.1 30.18 1.26 0.0 0 0.19 0.06 0.26 0.000
11/30/2012 6:11:41a 108 0 1 44 91 69.4 58.1 30.18 1.26 0.0 0 0.19 0.06 0.26 0.000
11/30/2012 6:12:41a 108 0 1 44 91 69.4 58.1 30.18 1.26 0.0 0 0.19 0.06 0.26 0.000
11/30/2012 6:13:44a 128 0 2 44 91 69.4 58.1 30.18 1.26 0.0 0 0.19 0.06 0.26 0.000
11/30/2012 6:14:44a 93 0 2 44 91 69.4 58.1 30.18 1.26 0.0 0 0.19 0.06 0.26 0.000
11/30/2012 6:15:44a 92 0 2 44 91 69.4 58.1 30.18 1.26 0.0 0 0.19 0.06 0.26 0.000
11/30/2012 6:16:44a 92 0 1 44 91 69.4 58.1 30.18 1.26 0.0 0 0.19 0.06 0.25 0.000
11/30/2012 6:17:48a 92 0 2 44 91 69.4 58.1 30.18 1.26 0.0 0 0.19 0.04 0.25 0.000
11/30/2012 6:18:48a 92 0 2 44 91 69.4 58.0 30.18 1.26 0.0 0 0.19 0.04 0.25 0.000
11/30/2012 6:19:48a 92 0 2 44 91 69.4 58.1 30.18 1.26 0.0 0 0.19 0.04 0.25 0.000
11/30/2012 6:20:48a 167 0 4 44 91 69.4 58.0 30.18 1.26 0.0 0 0.19 0.04 0.25 0.000
11/30/2012 6:21:51a 132 1 4 44 91 69.4 58.0 30.18 1.26 0.0 0 0.19 0.04 0.25 0.000
11/30/2012 6:22:51a 109 1 4 44 91 69.4 58.0 30.18 1.26 0.0 0 0.19 0.04 0.25 0.000
11/30/2012 6:23:51a 113 0 4 44 91 69.4 58.0 30.18 1.27 0.0 0 0.20 0.04 0.25 0.000
11/30/2012 6:24:51a 72 1 4 44 91 69.4 58.0 30.18 1.27 0.0 0 0.20 0.05 0.26 0.000
11/30/2012 6:25:51a 99 0 4 44 91 69.4 58.0 30.18 1.27 0.0 0 0.20 0.05 0.26 0.000
11/30/2012 6:26:54a 99 0 4 44 91 69.4 58.0 30.18 1.27 0.0 0 0.20 0.05 0.26 0.000
11/30/2012 6:27:54a 90 2 4 44 91 69.4 58.0 30.18 1.27 0.0 0 0.20 0.05 0.26 0.000
11/30/2012 6:28:54a 90 0 4 44 91 69.4 58.0 30.18 1.27 0.0 0 0.20 0.05 0.26 0.000
11/30/2012 6:29:54a 90 0 4 44 91 69.4 58.0 30.18 1.27 0.0 0 0.20 0.05 0.26 0.000
11/30/2012 6:30:54a 90 0 4 44 91 69.4 58.0 30.18 1.27 0.0 0 0.20 0.05 0.26 0.000
11/30/2012 6:31:54a 90 0 0 44 91 69.4 58.0 30.18 1.27 0.0 0 0.20 0.05 0.25 0.000
11/30/2012 6:32:54a 90 0 0 44 91 69.4 58.0 30.18 1.27 0.0 0 0.20 0.03 0.25 0.000
11/30/2012 6:33:55a 123 0 1 44 91 69.4 58.0 30.18 1.27 0.0 0 0.20 0.03 0.25 0.000
11/30/2012 6:34:58a 128 0 1 44 91 69.4 58.0 30.18 1.27 0.0 0 0.20 0.03 0.25 0.000
11/30/2012 6:35:58a 171 3 3 44 91 69.4 58.0 30.19 1.27 0.0 0 0.20 0.03 0.25 0.000
11/30/2012 6:36:58a 169 1 4 44 91 69.4 58.0 30.19 1.27 0.0 0 0.20 0.03 0.25 0.000
11/30/2012 6:37:58a 169 0 4 44 91 69.4 58.0 30.18 1.27 0.0 0 0.20 0.03 0.25 0.000
11/30/2012 6:39:01a 169 0 4 44 91 69.4 58.0 30.19 1.27 0.0 0 0.20 0.03 0.25 0.000
11/30/2012 6:40:01a 169 0 4 44 91 69.4 58.0 30.19 1.27 0.0 0 0.20 0.03 0.25 0.000
11/30/2012 6:41:01a 170 0 4 44 91 69.4 58.0 30.19 1.27 0.0 0 0.20 0.03 0.25 0.000
11/30/2012 6:42:01a 170 0 4 44 91 69.4 58.0 30.18 1.27 0.0 0 0.20 0.03 0.25 0.000
11/30/2012 6:43:01a 170 0 4 44 91 69.4 58.0 30.19 1.27 0.0 0 0.20 0.03 0.25 0.000
11/30/2012 6:44:01a 167 2 4 44 91 69.4 58.0 30.19 1.27 0.0 0 0.20 0.03 0.25 0.000
11/30/2012 6:45:01a 167 0 4 44 91 69.4 58.0 30.19 1.27 0.0 0 0.20 0.03 0.25 0.000
11/30/2012 6:46:01a 167 0 4 44 91 69.4 58.0 30.19 1.27 0.0 0 0.20 0.03 0.25 0.000
11/30/2012 6:47:01a 175 2 3 44 91 69.4 58.0 30.19 1.27 0.0 5 0.20 0.03 0.25 0.000
11/30/2012 6:48:04a 175 0 3 44 91 69.4 58.1 30.19 1.27 0.0 5 0.20 0.03 0.25 0.000
11/30/2012 6:49:04a 175 0 3 44 91 69.4 58.1 30.19 1.27 0.0 5 0.20 0.03 0.25 0.000
11/30/2012 6:50:04a 175 1 4 44 91 69.4 58.1 30.19 1.27 0.0 7 0.20 0.03 0.25 0.000
11/30/2012 6:51:05a 175 0 4 44 91 69.4 58.1 30.19 1.27 0.0 7 0.20 0.03 0.25 0.000
11/30/2012 6:52:05a 176 3 4 44 91 69.4 58.1 30.19 1.27 0.0 9 0.20 0.03 0.25 0.000
11/30/2012 6:53:05a 171 1 4 44 91 69.4 58.1 30.19 1.27 0.0 9 0.20 0.03 0.25 0.000
11/30/2012 6:54:05a 171 2 4 44 91 69.4 58.1 30.19 1.27 0.0 9 0.20 0.03 0.25 0.000
11/30/2012 6:55:05a 176 3 4 45 91 69.4 58.1 30.19 1.27 0.0 9 0.20 0.03 0.25 0.000
11/30/2012 6:56:05a 178 1 4 45 91 69.4 58.1 30.19 1.27 0.0 9 0.20 0.03 0.25 0.000
11/30/2012 6:57:05a 175 1 4 45 91 69.4 58.1 30.19 1.27 0.0 9 0.20 0.03 0.25 0.000

© All rights reserved. Unauthorized duplication or distribution is prohibited

Never base important decisions on this or any weather information obtained from the Internet

California State University, San Bernardino
5500 University Parkway, San Bernardino, CA. 92407
Phone: (909) 537-7558, Email: kbeecher@csusb.edu
Last Updated: